Location: Quebec
(46.8000°N, 71.2500°W)
Time: 01:57:04
(UTC-05:00)

OTV 5 (USA 277) - Pass Details

Date: 13 October 2017
Orbit: 404 x 417 km, 43.0° (Epoch: 07 September)

Event Time Altitude Azimuth Distance (km) Brightness Sun altitude
Rises 20:24:59 0° 260° (W) 2,354 ? -25.2°
Reaches altitude 10° 20:27:09 10° 253° (WSW) 1,491 ? -25.6°
Enters shadow 20:28:29 21° 243° (WSW) 1,000 ? -25.8°
